Temperature
9 10 10 10 10 11 11 11 11 11 9 9 10 10 10 9 7 7 7 7 6 6 6 6 6 6 6 6 5 5 5 5 5 5 5 4 4 4 4 4 4 4 4 4
10 9 9 9 9 9 10 10 11 10 8 8 9 9 10 9 8 7 7 7 6 6 5 5 5 5 6 5 5 5 5 5 5 5 4 4 4 4 4 3 3 3 3 3
10 9 8 8 8 9 9 10 10 9 8 7 8 10 10 9 7 7 6 6 6 6 5 5 5 5 5 5 5 5 5 5 4 4 4 4 4 3 3 3 3 3 3 3
8 8 7 8 8 9 9 9 8 8 9 10 9 11 11 9 8 7 6 6 6 6 5 5 5 5 5 5 5 4 4 4 4 4 3 3 3 3 3 3 2 2 2 2
8 7 7 8 8 8 8 7 8 8 8 9 9 9 11 8 8 9 8 6 6 5 5 4 4 4 5 4 4 4 3 3 3 3 3 3 3 2 2 2 2 2 1 1
7 6 7 7 7 7 7 7 7 7 8 9 9 9 10 10 9 9 8 6 5 5 4 4 4 4 4 4 3 3 3 3 3 2 2 2 2 2 2 2 1 1 1 1
7 6 6 6 7 6 7 8 9 9 9 10 7 8 9 9 7 7 6 5 4 4 4 3 3 3 3 3 3 3 3 2 2 2 2 2 2 2 1 1 1 1 0 0
8 7 6 6 7 7 7 8 9 9 10 10 6 7 9 7 5 4 4 4 3 3 3 3 3 2 3 3 2 2 2 2 2 2 2 1 1 1 1 1 1 0 0 -0
8 7 5 5 5 6 7 7 7 8 7 8 9 8 8 6 5 4 3 3 3 2 2 2 2 2 2 2 2 2 2 1 1 1 1 1 1 0 0 0 0 -0 -1 -1
6 6 5 5 5 5 6 6 7 8 8 9 9 8 9 7 6 5 3 2 2 2 1 1 1 1 1 1 1 1 1 1 1 1 0 0 0 -0 -0 -0 -1 -1 -1 -1
5 6 5 5 5 6 5 5 6 7 7 8 9 9 6 6 5 4 3 2 1 1 1 1 1 1 1 1 0 0 0 0 -0 -0 -0 -0 -1 -1 -1 -1 -1 -1 -2 -2
4 5 6 5 4 4 5 5 6 7 7 6 8 8 4 4 3 3 2 1 1 0 0 0 0 -0 -0 -0 -0 -0 -0 -1 -1 -1 -1 -1 -1 -1 -1 -2 -2 -2 -2 -2
3 4 6 6 4 3 3 4 4 5 5 6 7 7 3 2 2 1 1 1 0 -0 -1 -1 -1 -1 -1 -1 -1 -1 -1 -1 -1 -1 -2 -2 -2 -2 -2 -2 -2 -3 -3 -3
3 4 5 6 6 4 3 3 3 4 5 5 6 6 5 3 3 2 1 0 -0 -1 -1 -1 -2 -2 -2 -2 -2 -2 -2 -2 -2 -2 -2 -2 -2 -2 -2 -3 -3 -3 -3 -4
3 4 3 3 3 3 3 3 2 3 4 5 5 4 4 3 2 1 -0 -1 -1 -1 -2 -2 -2 -2 -2 -2 -2 -2 -2 -3 -3 -3 -3 -3 -3 -3 -3 -3 -3 -4 -4 -4
2 2 2 2 2 2 2 2 2 2 3 3 3 3 2 1 0 -1 -1 -2 -2 -2 -3 -3 -3 -3 -3 -3 -3 -3 -3 -3 -3 -3 -3 -3 -3 -4 -4 -4 -4 -4 -5 -5
1 1 2 3 2 2 2 2 1 1 1 1 2 2 0 -0 -1 -1 -2 -3 -3 -3 -3 -3 -3 -3 -3 -3 -3 -3 -3 -4 -4 -4 -4 -4 -4 -4 -4 -5 -5 -5 -5 -5
-0 1 1 2 2 2 3 0 0 0 -1 -1 -1 -1 -1 -1 -2 -3 -3 -3 -3 -3 -3 -4 -4 -4 -4 -4 -4 -4 -4 -4 -4 -4 -4 -4 -5 -5 -5 -5 -5 -6 -6 -6
-1 0 1 1 2 3 2 -1 -1 -1 -1 -2 -2 -2 -3 -3 -3 -3 -3 -3 -4 -4 -4 -4 -4 -4 -4 -4 -4 -4 -5 -5 -5 -5 -5 -5 -5 -5 -6 -6 -6 -6 -6 -7
-2 -1 1 1 2 2 2 -2 -3 -1 0 -2 -3 -3 -3 -3 -1 -1 -4 -4 -4 -4 -4 -5 -5 -5 -5 -5 -5 -5 -5 -5 -5 -5 -6 -6 -6 -6 -6 -6 -7 -7 -7 -7
-2 -1 -1 -0 1 1 -1 -4 -3 0 0 -3 -4 -4 -4 -4 -3 -4 -5 -5 -5 -5 -5 -5 -5 -6 -6 -6 -6 -6 -6 -6 -6 -6 -6 -6 -7 -7 -7 -7 -7 -7 -8 -8
-2 -1 -2 -1 -0 -0 -3 -4 -2 -2 -3 -4 -4 -4 -5 -5 -5 -6 -6 -6 -6 -6 -6 -6 -6 -6 -6 -6 -6 -6 -6 -6 -7 -7 -7 -7 -7 -7 -8 -8 -8 -8 -8 -8
-2 -2 -2 -2 -1 -3 -5 -4 -4 -5 -5 -5 -5 -5 -5 -6 -6 -7 -7 -7 -7 -7 -7 -7 -7 -7 -7 -7 -7 -7 -7 -7 -7 -7 -7 -7 -8 -8 -8 -8 -9 -9 -9 -9
-4 -5 -4 -4 -4 -5 -5 -5 -5 -5 -5 -6 -6 -6 -6 -6 -7 -7 -7 -7 -8 -8 -7 -7 -8 -8 -8 -8 -8 -8 -8 -8 -8 -8 -8 -8 -8 -9 -9 -9 -9 -9 -9 -10
-4 -5 -5 -4 -4 -6 -6 -6 -6 -6 -6 -6 -7 -7 -7 -7 -8 -8 -8 -8 -8 -8 -8 -8 -8 -8 -8 -8 -8 -8 -9 -9 -9 -9 -9 -9 -9 -9 -9 -10 -10 -10 -10 -10
-6 -6 -5 -4 -5 -6 -6 -6 -6 -7 -7 -7 -7 -7 -8 -8 -8 -8 -8 -8 -9 -9 -9 -9 -9 -9 -9 -9 -9 -9 -9 -9 -9 -9 -10 -10 -10 -10 -10 -10 -10 -10 -10 -10
Wind_Speed
3 5 8 10 11 9 8 9 11 8 4 7 12 14 13 10 11 12 11 11 11 11 10 10 10 11 11 10 10 10 9 8 7 6 5 4 3 3 3 3 3 3 3 3
5 9 9 7 7 8 9 10 11 6 3 6 9 13 12 11 12 12 12 12 12 11 10 10 11 11 12 12 11 10 10 9 8 6 5 3 4 3 3 3 3 3 3 3
9 4 5 7 7 9 11 11 10 7 3 5 6 10 9 7 9 10 11 12 12 13 13 12 12 12 11 12 12 10 10 9 8 7 6 5 4 3 2 2 2 2 3 3
6 5 5 7 8 9 10 8 8 8 7 5 5 7 6 5 6 8 10 11 12 12 12 12 12 12 12 11 10 10 9 9 8 8 7 7 5 4 3 3 2 2 3 2
5 4 5 7 7 8 5 3 6 7 7 7 6 7 6 3 7 8 8 9 10 10 11 11 11 11 10 9 9 9 9 8 8 8 8 7 5 4 4 4 4 3 2 2
4 3 4 4 3 4 4 3 2 4 5 8 8 7 7 5 6 5 5 6 7 7 8 9 9 9 9 9 9 9 9 8 8 7 7 7 7 6 6 5 4 3 2 1
4 3 2 1 3 4 4 4 3 4 5 6 3 6 7 4 3 4 5 4 4 5 7 8 9 10 9 10 9 9 9 9 8 8 7 7 7 7 7 6 5 3 2 1
4 4 4 2 3 5 7 6 5 4 5 3 4 7 4 1 2 2 2 2 2 4 6 7 8 9 9 9 9 9 9 8 8 8 7 6 6 5 4 5 4 4 3 2
3 3 1 2 2 3 5 6 4 2 2 4 5 5 4 1 1 1 1 0 2 3 5 6 7 7 8 8 8 9 8 8 7 7 6 6 5 5 5 4 4 3 2 2
2 3 2 1 2 1 2 4 3 4 4 5 5 5 4 1 1 1 1 1 1 3 4 5 5 6 6 7 7 7 7 7 7 6 6 5 5 5 4 4 4 3 3 3
1 3 2 3 5 5 4 4 4 4 4 5 5 3 1 1 1 1 1 1 1 2 3 4 4 5 6 6 6 6 6 6 6 6 5 5 5 5 4 4 4 3 3 3
1 2 3 4 1 2 4 5 6 4 4 4 5 4 2 1 2 1 1 1 0 2 3 4 5 5 6 6 6 6 6 5 5 5 5 5 4 4 4 4 3 3 3 3
1 2 2 2 2 1 3 3 4 3 2 5 6 4 2 2 2 2 1 1 1 2 3 4 5 5 5 5 5 5 5 5 5 5 5 4 4 4 4 4 3 3 3 3
2 3 5 6 3 2 4 5 5 6 5 7 9 8 5 4 4 3 2 1 1 2 3 4 4 4 4 4 5 5 5 5 5 5 5 5 4 4 4 4 3 3 3 3
1 3 4 6 5 4 5 6 7 9 9 9 8 8 8 6 5 4 2 1 1 2 2 3 4 4 4 4 4 4 5 4 5 5 4 4 4 4 4 4 3 3 3 2
1 3 2 5 4 3 6 8 8 9 9 10 10 10 6 4 3 2 1 0 0 1 2 2 3 4 4 4 4 4 4 4 4 4 4 4 3 3 3 3 3 3 2 2
2 2 2 4 2 3 6 6 7 5 5 7 9 6 3 3 3 2 2 1 2 2 2 3 3 3 4 4 4 4 4 4 4 4 4 4 4 3 3 3 3 3 2 2
4 3 2 2 1 5 2 3 2 3 3 3 3 3 3 3 2 2 2 2 2 2 1 2 2 2 3 3 4 4 4 4 4 4 3 3 3 3 3 3 3 2 2 2
3 3 2 2 2 5 3 1 1 3 3 2 4 4 3 2 1 2 3 2 1 1 1 2 2 3 3 4 4 4 4 4 3 3 3 3 3 3 3 3 3 2 2 2
1 1 2 2 3 4 3 3 4 2 3 2 2 3 2 1 3 3 3 2 1 1 0 2 2 3 3 3 4 4 3 3 2 2 2 2 3 3 3 3 2 2 2 2
0 1 3 3 4 4 4 3 0 2 3 3 2 2 2 2 3 3 2 2 1 1 2 3 3 3 3 3 4 4 3 2 1 1 1 2 2 2 2 2 2 2 2 2
3 3 3 3 4 5 2 2 1 2 4 3 2 2 2 2 2 2 1 1 1 2 2 3 3 3 3 3 4 3 2 1 1 2 2 1 1 1 1 2 1 1 2 2
4 3 3 4 4 2 1 1 2 3 3 3 4 3 1 1 1 1 1 1 1 1 2 2 3 3 3 3 3 3 1 1 1 2 1 1 1 1 1 2 2 2 2 2
3 2 2 3 4 3 2 2 4 3 3 4 3 2 1 1 1 0 0 1 1 1 2 2 3 3 3 3 3 2 1 1 2 1 1 1 1 1 1 1 2 2 2 3
2 2 2 5 4 4 3 3 4 3 3 3 3 2 1 0 0 0 1 1 1 2 2 2 2 3 2 2 2 2 2 1 1 1 0 0 1 1 1 2 2 3 3 4
2 3 4 5 3 3 4 3 3 2 2 2 2 3 2 1 0 1 1 1 1 2 2 2 2 2 2 2 2 2 2 1 1 0 0 1 1 1 2 2 2 3 4 5
Wind_Direction
185 197 211 214 219 235 236 234 241 245 221 224 240 252 251 227 219 223 221 216 215 215 205 193 188 184 181 178 175 171 168 164 160 156 153 149 144 126 106 92 90 86 80 76
190 225 231 224 220 228 234 239 247 252 228 237 255 264 260 235 223 222 222 221 217 210 199 189 185 184 185 182 179 175 173 171 170 168 159 155 143 131 116 104 92 87 80 73
212 219 209 205 210 220 233 239 244 248 247 233 267 268 243 228 225 227 227 225 221 211 203 191 185 185 185 186 183 179 175 171 167 161 148 137 131 132 133 122 99 84 82 76
221 226 204 211 223 225 238 235 234 239 243 255 238 265 250 231 232 229 228 224 222 213 205 195 189 187 186 184 180 175 172 169 164 161 165 166 167 166 163 151 136 111 98 91
218 215 213 221 230 224 226 219 224 231 235 256 236 247 263 212 238 237 228 223 222 209 200 195 190 186 180 173 171 169 166 165 166 167 168 171 167 161 149 147 144 128 109 100
233 226 223 225 233 212 173 159 178 207 220 244 236 231 263 232 238 249 237 227 221 205 195 188 180 173 171 167 167 167 164 164 164 166 169 173 170 165 159 159 156 146 134 115
236 219 194 195 184 182 198 199 218 216 220 238 186 224 256 273 267 262 261 247 215 193 185 178 173 173 170 169 169 168 165 164 166 167 171 173 175 173 172 171 170 165 161 157
226 230 201 228 221 209 210 212 226 241 245 250 183 231 253 320 314 291 283 252 196 179 176 174 174 173 170 170 169 167 166 166 167 169 172 173 177 177 177 177 174 175 176 171
232 233 208 236 266 220 196 210 249 257 272 264 237 246 268 240 277 318 9 111 186 177 173 171 169 168 166 168 169 168 166 166 166 166 168 173 178 176 173 171 170 170 168 165
253 247 226 212 201 232 240 197 191 211 241 251 248 243 250 240 308 358 2 314 192 163 162 160 158 159 160 162 162 162 165 164 163 164 167 169 172 174 171 168 171 170 170 168
276 229 221 202 212 214 185 196 216 217 240 248 257 248 352 267 296 289 303 308 238 156 148 149 148 147 148 150 154 157 159 156 158 162 162 166 169 168 167 170 174 172 172 172
248 235 246 238 247 283 221 214 202 218 227 234 256 263 66 348 332 312 315 344 90 117 125 133 136 135 140 146 149 152 153 156 159 159 160 164 166 164 165 169 173 174 174 178
210 210 252 229 203 177 233 229 228 237 227 224 235 247 88 32 6 345 320 348 107 117 120 125 128 133 140 146 150 152 154 156 156 156 158 162 166 166 168 170 174 175 177 181
253 225 236 258 292 217 243 239 221 212 223 233 237 255 279 305 314 323 323 334 110 132 139 138 136 137 142 146 149 152 153 156 156 158 163 168 170 173 172 171 173 175 181 186
270 244 244 266 273 268 268 255 227 223 232 240 248 253 275 291 298 310 317 338 112 143 148 152 151 148 144 145 147 152 155 158 159 162 168 172 170 170 169 170 170 172 181 190
299 247 258 271 268 277 288 274 245 241 243 243 259 271 292 312 314 316 310 255 220 205 179 164 156 154 153 153 155 155 157 158 162 166 171 170 168 167 170 171 169 172 179 188
217 208 234 263 298 292 278 263 226 221 229 231 244 264 307 307 308 298 284 260 257 256 207 184 175 170 166 165 162 162 159 156 161 166 169 171 172 171 173 172 172 177 185 195
207 210 234 268 283 243 277 31 210 216 247 245 267 295 292 284 305 324 302 271 273 260 218 190 176 162 158 152 150 146 146 151 155 160 167 171 172 175 174 175 182 187 195 205
222 203 212 217 241 268 288 325 290 235 277 289 258 278 302 328 339 331 338 319 272 248 210 180 165 154 146 143 142 136 140 146 152 163 171 176 177 177 179 187 196 196 202 214
37 217 209 206 234 252 320 345 325 237 267 351 277 268 296 291 273 308 7 9 6 17 117 138 134 129 131 135 136 134 139 147 162 177 179 179 182 184 189 201 208 210 213 223
71 195 218 230 240 265 335 336 283 212 310 351 287 258 248 250 290 331 0 15 30 55 91 117 124 126 131 134 135 136 138 155 172 157 150 157 173 186 192 200 211 209 214 228
194 195 206 209 225 261 14 93 200 292 340 340 316 292 276 286 335 338 349 23 63 82 92 110 116 112 108 122 134 134 136 131 127 135 139 143 158 178 184 188 202 207 208 225
213 217 218 207 228 318 109 248 320 335 320 317 314 311 293 264 289 327 353 17 66 92 101 110 115 106 91 96 121 131 116 104 113 127 134 137 152 182 199 205 210 213 222 236
248 298 225 242 262 286 294 319 336 344 331 326 322 315 282 254 260 282 15 62 72 73 91 103 110 106 89 82 88 101 99 111 120 125 131 150 184 220 230 234 232 235 238 243
252 202 228 253 283 313 298 310 323 338 351 356 358 3 347 154 198 138 126 106 91 83 77 94 106 103 88 78 78 74 78 98 112 121 144 195 223 243 255 259 259 255 254 254
199 207 226 254 260 259 289 326 335 336 343 353 7 11 21 58 113 109 107 98 96 95 91 96 97 95 86 77 68 57 58 82 102 123 205 257 261 266 268 271 283 279 272 273
Height
1486 1486 1483 1483 1485 1484 1481 1481 1481 1483 1489 1490 1484 1481 1481 1485 1487 1488 1489 1490 1491 1492 1495 1496 1498 1501 1504 1507 1509 1511 1514 1516 1518 1519 1521 1523 1524 1526 1526 1527 1527 1527 1527 1527
1484 1483 1483 1485 1487 1486 1484 1482 1480 1485 1490 1489 1483 1479 1478 1480 1481 1483 1484 1485 1487 1489 1490 1492 1494 1497 1500 1502 1505 1507 1510 1512 1514 1517 1519 1521 1522 1523 1524 1525 1525 1525 1525 1525
1477 1481 1484 1485 1485 1485 1483 1481 1480 1483 1488 1489 1486 1474 1472 1475 1478 1479 1480 1481 1482 1484 1485 1487 1490 1492 1495 1498 1501 1504 1506 1509 1511 1513 1516 1517 1519 1520 1521 1522 1523 1523 1523 1524
1479 1482 1484 1483 1482 1482 1479 1482 1484 1485 1484 1478 1482 1469 1464 1469 1473 1474 1475 1476 1477 1479 1481 1483 1485 1488 1491 1494 1497 1500 1503 1505 1508 1510 1512 1514 1516 1517 1518 1520 1520 1521 1521 1522
1478 1481 1482 1480 1480 1481 1480 1484 1484 1484 1482 1481 1479 1476 1462 1469 1468 1468 1470 1472 1473 1475 1477 1480 1482 1485 1488 1491 1493 1496 1499 1502 1505 1507 1510 1512 1513 1515 1516 1517 1518 1519 1519 1520
1479 1481 1482 1481 1482 1482 1484 1484 1484 1483 1481 1476 1471 1474 1460 1461 1463 1464 1467 1469 1470 1472 1474 1477 1480 1482 1485 1488 1491 1493 1496 1499 1501 1504 1506 1508 1510 1512 1513 1514 1515 1516 1517 1517
1477 1479 1481 1482 1481 1483 1482 1479 1474 1472 1471 1464 1475 1474 1463 1461 1465 1466 1467 1467 1468 1470 1472 1474 1476 1479 1481 1484 1487 1490 1493 1495 1498 1501 1503 1505 1507 1509 1510 1512 1513 1514 1514 1515
1472 1473 1479 1480 1479 1478 1478 1475 1470 1467 1461 1459 1477 1470 1461 1466 1467 1467 1466 1467 1467 1468 1470 1471 1474 1476 1479 1482 1485 1487 1490 1493 1495 1497 1500 1502 1504 1506 1507 1509 1510 1511 1512 1512
1471 1472 1480 1481 1481 1479 1477 1474 1475 1471 1474 1471 1462 1463 1463 1465 1466 1466 1466 1466 1466 1468 1469 1470 1472 1474 1477 1479 1482 1485 1488 1490 1492 1494 1497 1499 1501 1503 1504 1505 1507 1508 1509 1509
1476 1475 1478 1481 1481 1481 1479 1477 1476 1472 1467 1461 1455 1458 1456 1461 1463 1465 1466 1466 1466 1467 1468 1469 1471 1473 1475 1478 1480 1483 1485 1488 1490 1492 1494 1496 1498 1499 1501 1502 1503 1504 1505 1506
1479 1476 1478 1479 1477 1474 1479 1480 1475 1470 1467 1461 1456 1455 1462 1463 1465 1466 1466 1467 1467 1467 1467 1468 1470 1471 1473 1476 1478 1480 1483 1485 1487 1489 1491 1493 1495 1497 1498 1499 1500 1501 1502 1503
1479 1476 1473 1475 1479 1479 1477 1475 1474 1470 1469 1469 1461 1461 1467 1467 1467 1467 1467 1467 1467 1467 1467 1468 1469 1470 1472 1474 1477 1479 1481 1483 1485 1487 1489 1491 1492 1494 1495 1496 1497 1498 1499 1500
1480 1477 1471 1469 1478 1481 1479 1478 1477 1475 1472 1469 1463 1461 1467 1467 1467 1467 1467 1467 1467 1467 1467 1468 1469 1470 1471 1473 1476 1477 1479 1481 1483 1485 1487 1488 1490 1491 1492 1493 1494 1495 1496 1497
1479 1477 1473 1467 1465 1472 1477 1477 1478 1476 1471 1466 1463 1460 1463 1466 1467 1467 1467 1467 1467 1467 1467 1468 1468 1469 1471 1472 1474 1476 1478 1480 1481 1483 1485 1486 1487 1488 1489 1490 1491 1492 1493 1494
1480 1476 1475 1474 1475 1475 1474 1475 1476 1474 1467 1464 1460 1463 1463 1465 1467 1467 1467 1466 1466 1466 1467 1467 1468 1469 1470 1471 1473 1475 1476 1478 1479 1481 1482 1483 1484 1486 1486 1487 1488 1489 1490 1491
1481 1478 1477 1475 1474 1474 1475 1472 1473 1472 1471 1468 1466 1465 1466 1467 1467 1467 1466 1466 1466 1466 1466 1466 1467 1468 1469 1470 1471 1473 1475 1476 1478 1479 1480 1481 1482 1483 1483 1484 1485 1486 1487 1487
1480 1480 1476 1469 1474 1473 1469 1468 1470 1471 1470 1468 1465 1466 1467 1467 1467 1466 1466 1465 1465 1465 1465 1465 1465 1466 1467 1469 1470 1471 1473 1474 1476 1477 1478 1479 1479 1480 1481 1482 1482 1483 1484 1484
1481 1479 1476 1472 1474 1473 1465 1470 1469 1470 1469 1470 1469 1468 1467 1467 1466 1466 1465 1464 1464 1464 1464 1464 1464 1465 1467 1468 1469 1470 1471 1472 1474 1475 1476 1476 1477 1478 1478 1479 1480 1480 1481 1481
1481 1479 1476 1474 1469 1464 1466 1471 1472 1471 1468 1469 1468 1468 1467 1466 1465 1464 1463 1463 1463 1463 1463 1463 1463 1464 1465 1466 1467 1468 1470 1471 1472 1473 1473 1474 1475 1475 1476 1476 1477 1477 1478 1478
1482 1480 1477 1475 1469 1464 1466 1473 1472 1472 1466 1467 1467 1467 1467 1466 1463 1463 1463 1462 1461 1461 1461 1461 1462 1463 1463 1465 1466 1467 1468 1469 1470 1471 1471 1472 1472 1473 1473 1474 1474 1474 1475 1474
1483 1482 1480 1476 1472 1467 1473 1473 1472 1469 1466 1469 1468 1467 1467 1466 1465 1464 1462 1461 1460 1460 1460 1460 1461 1461 1462 1463 1464 1465 1466 1467 1468 1469 1469 1470 1470 1470 1471 1471 1471 1471 1471 1471
1480 1479 1481 1477 1475 1473 1474 1473 1473 1470 1469 1468 1468 1467 1466 1465 1463 1462 1461 1460 1459 1459 1459 1459 1459 1460 1461 1462 1463 1463 1464 1465 1466 1467 1467 1467 1468 1468 1468 1468 1468 1468 1468 1468
1479 1479 1475 1476 1474 1473 1473 1472 1471 1470 1469 1468 1467 1465 1464 1463 1462 1461 1460 1459 1459 1458 1458 1458 1459 1459 1460 1461 1461 1462 1463 1464 1464 1464 1465 1465 1466 1466 1466 1466 1466 1465 1465 1465
1479 1480 1478 1476 1473 1473 1472 1471 1470 1469 1468 1466 1465 1464 1462 1461 1460 1459 1459 1458 1458 1458 1458 1458 1458 1458 1459 1460 1460 1461 1461 1462 1462 1462 1463 1463 1463 1463 1463 1463 1463 1463 1462 1462
1477 1478 1476 1473 1472 1471 1469 1469 1468 1467 1466 1465 1463 1462 1461 1460 1458 1458 1458 1457 1457 1457 1457 1457 1457 1457 1458 1458 1459 1459 1460 1460 1460 1460 1461 1461 1461 1461 1461 1461 1460 1460 1460 1459
1476 1477 1474 1469 1470 1470 1468 1467 1467 1465 1464 1463 1462 1460 1459 1459 1458 1457 1457 1457 1457 1457 1457 1457 1457 1457 1457 1458 1458 1458 1459 1459 1459 1459 1459 1459 1459 1458 1458 1458 1458 1457 1457 1456